AEE963 LROP-LGAV

Flight info

Callsign AEE963
Flight time N/A
Altitude 36000
Route POLUN DCT TIMUR/N0444F370 N181 GOL/N0446F390 N181 NIKTI DCT KOROS/N0442F320 UT162 NEVRA
Aircraft A320/M-SDE3FGHIRWY/LB1

Departure

Time 2026-05-07 19:41
Airport Bucharest Henri Coandă International Airport (LROP)

Arrival

Time N/A
Airport Athens Eleftherios Venizelos International Airport (LGAV)
Time Latitude Longitude Altitude Speed Heading
2026-05-07 19:41 44.35236 26.27975 14301 ft 365 kts 257°
2026-05-07 19:41 44.34844 26.24457 14964 ft 369 kts 261°
2026-05-07 19:41 44.34479 26.20899 15604 ft 371 kts 261°
2026-05-07 19:41 44.34115 26.17306 16231 ft 375 kts 261°
2026-05-07 19:42 44.33747 26.13681 16868 ft 378 kts 261°
2026-05-07 19:42 44.33372 26.10043 17516 ft 381 kts 261°
2026-05-07 19:42 44.32986 26.06353 18183 ft 385 kts 261°
2026-05-07 19:42 44.32589 26.02635 18783 ft 388 kts 261°
2026-05-07 19:43 44.32185 25.98887 19392 ft 392 kts 261°
2026-05-07 19:43 44.31777 25.95113 19996 ft 395 kts 261°
2026-05-07 19:43 44.31366 25.91307 20612 ft 397 kts 261°
2026-05-07 19:43 44.30954 25.87485 21197 ft 400 kts 261°
2026-05-07 19:44 44.30537 25.83624 21766 ft 402 kts 261°
2026-05-07 19:44 44.30119 25.79749 22333 ft 404 kts 261°
2026-05-07 19:44 44.29707 25.75910 22855 ft 407 kts 261°
2026-05-07 19:44 44.29283 25.71999 23369 ft 409 kts 261°
2026-05-07 19:45 44.28852 25.68052 23827 ft 412 kts 261°
2026-05-07 19:45 44.28418 25.64088 24236 ft 414 kts 261°
2026-05-07 19:45 44.27978 25.60104 24645 ft 416 kts 260°
2026-05-07 19:45 44.27533 25.56110 25033 ft 419 kts 260°
2026-05-07 19:46 44.27085 25.52080 25429 ft 421 kts 261°
2026-05-07 19:46 44.26636 25.48032 25812 ft 423 kts 261°
2026-05-07 19:46 44.26183 25.43965 26194 ft 425 kts 260°
2026-05-07 19:46 44.25726 25.39870 26570 ft 428 kts 260°
2026-05-07 19:47 44.25265 25.35771 26945 ft 430 kts 260°
2026-05-07 19:47 44.24796 25.31630 27307 ft 433 kts 260°
2026-05-07 19:47 44.24293 25.27473 27675 ft 435 kts 257°
2026-05-07 19:47 44.23422 25.23437 28036 ft 437 kts 248°
2026-05-07 19:48 44.22094 25.19632 28384 ft 439 kts 239°
2026-05-07 19:48 44.20342 25.16133 28734 ft 441 kts 232°
2026-05-07 19:48 44.18474 25.12746 29075 ft 443 kts 232°
2026-05-07 19:48 44.16592 25.09328 29409 ft 445 kts 232°